DW3637 Weather Reports


Display with metric or nautical units.
time (UTC)temp
F
wind
direction
speed
MPH
gust
MPH
rain 1hr
in
rain 24hr
in
rain mn
in
humidity
%
barometer
mb
20260503032517 48 45 1.0 3.0 0.00 0.52 0.52 50 1010.8
20260503031517 48 0.0 2.0 0.00 0.52 0.52 50 1010.8
20260503030517 48 0.0 4.0 0.00 0.52 0.52 50 1010.8
20260503025517 48 23 1.0 3.0 0.00 0.52 0.52 50 1010.8
20260503024518 49 45 1.0 4.0 0.00 0.52 0.52 49 1010.9
20260503023517 49 23 1.0 4.0 0.00 0.52 0.52 49 1010.9
20260503022517 49 23 1.0 5.0 0.00 0.52 0.52 48 1010.8
20260503021517 50 0 1.0 4.0 0.00 0.52 0.52 48 1010.8
20260503020517 50 68 1.0 4.0 0.00 0.52 0.52 48 1010.8
20260503015519 50 0.0 1.0 0.00 0.52 0.52 48 1010.8
20260503014517 50 0.0 3.0 0.00 0.52 0.52 48 1010.9
20260503013517 51 0.0 1.0 0.00 0.52 0.52 46 1010.8
20260503012517 51 23 1.0 4.0 0.00 0.52 0.52 46 1010.7
20260503011517 51 45 1.0 3.0 0.00 0.52 0.52 46 1010.9
20260503010517 52 0.0 2.0 0.00 0.52 0.52 46 1010.7
20260503005520 52 23 1.0 6.0 0.00 0.52 0.52 46 1010.5
20260503004517 52 338 1.0 3.0 0.00 0.52 0.52 45 1010.4
20260503003521 53 23 1.0 5.0 0.00 0.52 0.52 45 1010.2
20260503002537 53 23 1.0 3.0 0.00 0.52 0.52 44 1010.1
20260503001537 53 23 1.0 5.0 0.00 0.52 0.52 44 1009.9
20260503000517 54 23 1.0 6.0 0.00 0.52 0.52 44 1009.8
20260502235537 54 0.0 1.0 0.00 0.52 0.52 45 1009.6
20260502234517 55 315 1.0 4.0 0.00 0.52 0.52 45 1009.6
20260502233517 56 0.0 2.0 0.00 0.52 0.52 44 1009.5
20260502232537 56 315 1.0 6.0 0.00 0.52 0.52 45 1009.3
20260502231517 56 0.0 2.0 0.00 0.52 0.52 45 1009.2
20260502230549 56 338 1.0 3.0 0.00 0.52 0.52 46 1009.2
20260502225517 57 0 2.0 7.0 0.00 0.52 0.52 46 1009.3
20260502224521 58 315 1.0 5.0 0.00 0.52 0.52 47 1009.1
20260502223518 58 315 2.0 5.0 0.00 0.52 0.52 45 1008.8
20260502222517 58 315 1.0 4.0 0.00 0.52 0.52 47 1008.9
20260502221517 59 315 1.0 3.0 0.00 0.52 0.52 47 1008.8
20260502220540 59 315 1.0 5.0 0.00 0.52 0.52 48 1008.8
20260502215537 59 338 1.0 3.0 0.00 0.52 0.52 48 1008.9
20260502214517 59 293 2.0 5.0 0.00 0.52 0.52 47 1008.9
20260502213537 59 338 1.0 4.0 0.00 0.52 0.52 49 1008.8
20260502212517 58 338 2.0 5.0 0.00 0.52 0.52 51 1008.7
20260502211537 59 293 1.0 4.0 0.00 0.52 0.52 49 1008.8
20260502210517 59 315 1.0 3.0 0.00 0.52 0.52 52 1008.7
20260502205537 59 23 1.0 3.0 0.00 0.52 0.52 56 1008.8
20260502204517 59 315 2.0 7.0 0.00 0.52 0.52 54 1008.8
20260502203518 59 315 1.0 5.0 0.00 0.52 0.52 55 1008.8
20260502202537 58 248 1.0 4.0 0.00 0.52 0.52 56 1008.9
20260502201537 57 270 2.0 6.0 0.00 0.52 0.52 59 1009.1
20260502200517 57 293 1.0 3.0 0.00 0.52 0.52 62 1009.3
20260502195516 57 293 1.0 4.0 0.00 0.52 0.52 62 1009.4
20260502194517 57 270 1.0 3.0 0.00 0.52 0.52 65 1009.5
20260502193536 56 248 1.0 3.0 0.00 0.52 0.52 70 1009.7
20260502192516 55 0.0 2.0 0.00 0.52 0.52 72 1009.7
20260502191516 54 0.0 1.0 0.00 0.52 0.52 81 1009.8
20260502190516 54 0.0 2.0 0.00 0.52 0.52 80 1010.0
20260502185516 53 248 1.0 4.0 0.01 0.52 0.52 84 1009.9
20260502184517 53 248 1.0 3.0 0.02 0.52 0.52 86 1010.0
20260502183516 52 0.0 2.0 0.02 0.52 0.52 87 1010.0
20260502182516 52 0.0 1.0 0.03 0.52 0.52 89 1010.0
20260502181536 51 0.0 1.0 0.05 0.52 0.52 89 1010.0
20260502180536 51 270 1.0 2.0 0.06 0.52 0.52 90 1010.2
20260502170516 50 0.0 0.0 0.18 0.46 0.46 90 1010.3
20260502163516 50 0.0 1.0 0.21 0.43 0.43 89 1010.4
20260502162536 50 0.0 1.0 0.18 0.40 0.40 88 1010.5
20260502161519 51 338 1.0 5.0 0.14 0.36 0.36 85 1010.5
20260502160516 53 338 2.0 7.0 0.06 0.28 0.28 80 1010.5
20260502151536 54 0.0 2.0 0.00 0.22 0.22 81 1010.5
20260502150516 53 248 1.0 2.0 0.00 0.22 0.22 81 1010.7
20260502130547 50 0.0 1.0 0.00 0.22 0.22 92 1011.1
20260502123516 49 0.0 0.0 0.00 0.22 0.22 93 1011.2
20260502122536 49 0.0 0.0 0.02 0.22 0.22 93 1011.1
20260502121518 48 0.0 1.0 0.04 0.22 0.22 94 1011.2
20260502120516 48 0.0 1.0 0.07 0.22 0.22 94 1011.1
20260502115516 48 0.0 1.0 0.10 0.22 0.22 93 1011.2
20260502114516 47 0.0 1.0 0.11 0.22 0.22 93 1011.2
20260502113536 47 0.0 1.0 0.11 0.22 0.22 93 1011.4
20260502112536 47 0.0 1.0 0.11 0.20 0.20 93 1011.6
20260502111515 47 0.0 0.0 0.11 0.18 0.18 92 1011.6
20260502110516 47 0.0 1.0 0.11 0.15 0.15 92 1011.6
20260502105537 47 158 1.0 5.0 0.08 0.12 0.13 92 1011.4
20260502104515 47 0.0 1.0 0.07 0.11 0.11 91 1011.2
20260502103519 47 0.0 1.0 0.07 0.11 0.11 91 1011.2
20260502102516 47 0.0 1.0 0.05 0.09 0.09 91 1011.4
20260502101515 47 0.0 1.0 0.03 0.07 0.07 90 1011.6
20260502100524 47 0.0 1.0 0.00 0.04 0.04 90 1011.3
20260502091517 47 0.0 2.0 0.02 0.04 0.04 89 1010.5
20260502090518 48 0.0 1.0 0.03 0.04 0.04 89 1010.5
20260502071522 50 0.0 1.0 0.01 0.01 0.01 86 1010.5
20260502070517 51 0.0 1.0 0.01 0.01 0.01 84 1010.8
20260502065517 51 0.0 1.0 0.00 0.00 0.00 83 1010.9
20260502064517 51 0.0 1.0 0.00 0.00 0.00 82 1010.5
20260502063520 51 248 1.0 2.0 0.00 0.00 0.00 82 1010.7
20260502062517 51 0.0 1.0 0.00 0.00 0.00 81 1010.3
20260502061517 51 0.0 1.0 0.00 0.00 0.00 81 1010.3
20260502060517 51 0.0 0.0 0.00 0.00 0.00 78 1010.3
20260502055517 52 0.0 1.0 0.00 0.00 0.00 74 1010.6
20260502054517 53 0.0 0.0 0.00 0.00 0.00 70 1010.8
20260502053517 53 0.0 1.0 0.00 0.00 0.00 70 1011.0
20260502052517 53 0.0 0.0 0.00 0.00 0.00 69 1010.9
20260502051517 53 270 1.0 2.0 0.00 0.00 0.00 68 1011.0
20260502050517 53 0.0 1.0 0.00 0.00 0.00 68 1010.9
20260502045517 53 0.0 4.0 0.00 0.00 0.00 67 1010.8
20260502044517 54 0.0 1.0 0.00 0.00 0.00 67 1010.8
20260502043517 54 0.0 1.0 0.00 0.00 0.00 66 1010.5
20260502042517 54 0.0 2.0 0.00 0.00 0.00 66 1010.4
20260502041517 54 0.0 2.0 0.00 0.00 0.00 65 1010.4
20260502040518 54 0.0 2.0 0.00 0.00 0.00 64 1010.6
20260502035516 55 225 1.0 3.0 0.00 0.00 0.00 63 1010.6
20260502034520 55 225 1.0 2.0 0.00 0.00 0.00 61 1010.7
20260502033517 55 225 1.0 2.0 0.00 0.00 0.00 60 1010.6